Home > Weather > Mechelen > Past weeks

Flag for Belgium Weather for the Past 2 Weeks in Mechelen, Belgium

Now
36 °F

Drizzle. Partly sunny.


Feels Like: 29 °F
Forecast: 32 / 39 °F
Wind: 8 mph from Northwest

Location: Brussels National Airport

Current Time: Feb 14, 2016 at 4:04:34 PM

Latest Report: Feb 14, 2016 at 3:20 PM


Visibility: 4 mi

Pressure: 29.30 "Hg

Humidity: 93%

Dew point: 34 °F

Location of MechelenLocation

Historic Weather in Mechelen — Graph

°F

Mechelen Temperature Yesterday

Maximum temperature yesterday: 37 °F (at 12:50 PM)
Minimum temperature yesterday: 28 °F (at 2:50 AM)
Average temperature yesterday: 34 °F

High & Low Weather Summary for the Past Weeks

 TemperatureHumidityPressure
High54 °F (Jan 31, 8:50 PM)100% (Jan 31, 10:20 AM)30.33 "Hg (Jan 31, 10:20 AM)
Low28 °F (Feb 13, 2:50 AM)58% (Feb 6, 10:50 PM)28.88 "Hg (Feb 9, 1:20 PM)
Average43 °F86%29.68 "Hg
* Reported Jan 30 2:20 PM — Feb 14 2:50 PM, Mechelen, Weather by CustomWeather, © 2016

Note: Actual official high and low records may vary slightly from our data, if they occured in-between our weather recording intervals... More about our weather records

Advertising

Mechelen Weather History for the Previous 24 Hours

 ConditionsComfort  
Time TempWeatherWind HumidityBarometerVisibility
2:50 PM
Sun, Feb 14
37 °FDrizzle. Partly sunny.6 mph93%29.27 "Hg3 mi
2:20 PM37 °FLight rain. Partly sunny.6 mph87%29.27 "Hg4 mi
1:50 PM37 °FPartly sunny.5 mph87%29.27 "Hg4 mi
1:20 PM37 °FPartly sunny.6 mph93%29.24 "Hg4 mi
12:50 PM36 °FPartly sunny.6 mph93%29.24 "Hg4 mi
12:20 PM36 °FPartly sunny.5 mph93%29.21 "Hg4 mi
11:50 AM36 °FLight rain. Broken clouds.3 mph93%29.21 "Hg3 mi
11:20 AM36 °FLight rain. Broken clouds.5 mph93%29.21 "Hg3 mi
10:50 AM36 °FLight rain. Broken clouds.5 mph93%29.18 "Hg3 mi
10:20 AM36 °FDrizzle. Broken clouds.5 mph93%29.18 "Hg2 mi
9:50 AM36 °FDrizzle. Partly sunny.5 mph93%29.18 "Hg1 mi
9:20 AM36 °FDrizzle. Partly sunny.5 mph100%29.15 "Hg2 mi
8:50 AM36 °FDrizzle. Partly sunny.6 mph93%29.15 "Hg2 mi
8:20 AM36 °FDrizzle. Partly sunny.6 mph100%29.12 "Hg2 mi
7:50 AM34 °FPassing clouds.3 mph100%29.12 "Hg2 mi
7:20 AM34 °FLight rain. Passing clouds.5 mph100%29.12 "Hg3 mi
6:50 AM36 °FLight rain. Passing clouds.6 mph93%29.12 "Hg4 mi
6:20 AM36 °FLight rain. Partly cloudy.5 mph93%29.09 "Hg4 mi
5:50 AM36 °FPartly cloudy.3 mph100%29.09 "Hg4 mi
5:20 AM36 °FPartly cloudy.3 mph100%29.09 "Hg3 mi
4:50 AM36 °FPartly cloudy.6 mph100%29.09 "Hg2 mi
4:20 AM36 °FPartly cloudy.5 mph100%29.06 "Hg1 mi
3:50 AM37 °FPassing clouds.3 mph100%29.06 "Hg1 mi
2:50 AM36 °FPassing clouds.5 mph100%29.06 "Hg1 mi
2:20 AM36 °FPassing clouds.5 mph100%29.03 "Hg1 mi
1:50 AM36 °FPassing clouds.6 mph100%29.03 "Hg1 mi
1:20 AM37 °FPassing clouds.5 mph100%29.06 "Hg1 mi
12:50 AM37 °FPartly cloudy.3 mph100%29.03 "Hg1 mi
12:20 AM37 °FPartly cloudy.3 mph100%29.03 "Hg1 mi
11:50 PM
Sat, Feb 13
37 °FPassing clouds.2 mph100%29.03 "Hg3 mi
11:20 PM37 °FFog.5 mph93%29.00 "Hg3 mi
10:50 PM37 °FFog.6 mph93%29.00 "Hg3 mi
10:20 PM37 °FPartly cloudy.5 mph93%29.00 "Hg3 mi
9:50 PM37 °FPartly cloudy.5 mph93%29.00 "Hg3 mi
9:20 PM37 °FPartly cloudy.7 mph93%29.00 "Hg3 mi
8:50 PM37 °FPassing clouds.7 mph93%29.00 "Hg2 mi
8:20 PM37 °FPassing clouds.8 mph93%29.00 "Hg2 mi
7:50 PM37 °FPartly cloudy.7 mph100%29.00 "Hg2 mi
7:20 PM37 °FPassing clouds.7 mph100%29.00 "Hg2 mi
6:50 PM37 °FPassing clouds.7 mph100%29.00 "Hg2 mi
6:20 PM37 °FPassing clouds.8 mph100%29.00 "Hg3 mi
5:50 PM37 °FDrizzle. Partly sunny.10 mph93%29.00 "Hg3 mi
5:20 PM37 °FDrizzle. Partly sunny.9 mph93%29.00 "Hg2 mi
4:50 PM37 °FDrizzle. Partly sunny.8 mph100%29.03 "Hg2 mi
4:20 PM37 °FDrizzle. Broken clouds.8 mph100%29.03 "Hg2 mi
Weather by CustomWeather, © 2016

See weather overviewHow to use our weather pages